Overview Statistics Trail Chart Weather Telemetry Raw packets
 

This is the latest recevied weather packets stored in our database for station/object N5ATR. If no packets are shown the sender has not sent any weather packets the latest 10 day(s).

<< 13 14 15 16 17 18 19 >>
Time Temp. Humidity Pressure Rain* Wind** Luminosity Snow
1788602656 16.11° C 76% 1021.7 hPa 0 mm - 0 W/m² -
1788602356 16.11° C 76% 1021.7 hPa 0 mm - 0 W/m² -
1788602051 16.11° C 76% 1021.5 hPa 0 mm - 0 W/m² -
1788601750 16.11° C 75% 1021.7 hPa 0 mm - 0 W/m² -
1788601446 16.11° C 76% 1021.9 hPa 0 mm - 0 W/m² -
1788601145 15.56° C 77% 1021.8 hPa 0 mm - 0 W/m² -
1788600841 15° C 75% 1021.9 hPa 0 mm - 0 W/m² -
1788600536 15.56° C 76% 1022 hPa 0 mm - 0 W/m² -
1788600237 15° C 77% 1022 hPa 0 mm - 0 W/m² -
1788599937 15° C 77% 1021.9 hPa 0 mm - 0 W/m² -
1788599637 15° C 75% 1022.2 hPa 0 mm - 0 W/m² -
1788599335 15.56° C 75% 1022 hPa 0 mm - 0 W/m² -
1788599031 15° C 76% 1022.4 hPa 0 mm - 0 W/m² -
1788598731 15° C 76% 1022.4 hPa 0 mm - 0 W/m² -
1788598431 15° C 75% 1022.3 hPa 0 mm - 0 W/m² -
1788598128 15.56° C 75% 1022 hPa 0 mm - 0 W/m² -
1788597826 15.56° C 74% 1022.2 hPa 0 mm - 0 W/m² -
1788597521 15.56° C 74% 1022.3 hPa 0 mm - 0 W/m² -
1788597217 15.56° C 73% 1022.4 hPa 0 mm - 0 W/m² -
1788596912 16.11° C 73% 1022.3 hPa 0 mm - 0 W/m² -
1788596608 16.11° C 72% 1022 hPa 0 mm - 0 W/m² -
1788596320 16.67° C 71% 1022.2 hPa 0 mm - 0 W/m² -
1788596004 16.67° C 69% 1022.3 hPa 0 mm - 0 W/m² -
1788595703 17.22° C 69% 1022.3 hPa 0 mm - 0 W/m² -
1788595398 17.22° C 68% 1022 hPa 0 mm - 0 W/m² -

* Rain latest hour (hover to see other rain measurements)
** Current wind speed in m/s (hover to see current wind gust speed)